Погода в Аль-Айне

Объединённые Арабские Эмираты     24°13′26″N   55°46′00″E
темп.,
°C
ветер,
м/с
пор.,
м/с
влажн.,
%
обл.,
%
осадки,
мм/ч
давл.,
гПа
погр.,
м
15 мая, сб
сб1501:00+30с33360 0.0 100222
04:00+30с33300 0.0 100118
07:00+32всв12210 0.0 100356
10:00+38св11130 0.0 10031523
13:00+41сз4470 0.0 10014277
16:00+42сз6560 0.0 9994630
19:00+36с68160 0.0 1001249
22:00+33ссз44200 0.0 100356
16 мая, вс
вс1601:00+31с56240 0.0 100276
04:00+30всв22220 0.0 100315
07:00+32всв35180 0.0 1004134
10:00+40в3580 0.0 10042353
13:00+43ссз4650 0.0 10024856
16:00+42ссз10861 0.0 10015094
19:00+35ссз710170 0.0 1003331
22:00+32ссв34210 0.0 100538
17 мая, пн
пн1701:00+30ссв22180 0.0 100411
04:00+29ссв23180 0.0 100411
07:00+32всв11110 0.0 100616
10:00+39вюв2470 0.0 10051992
13:00+41ссз2350 0.0 10033506
16:00+42сз5450 0.0 10013928
19:00+36ссз710150 0.0 1002264
22:00+33ссв45172 0.0 100460
18 мая, вт
вт1801:00+31св22172 0.0 100315
04:00+30с33174 0.0 100315
07:00+32ссв22140 0.0 100567
10:00+39с2490 0.0 10051552
13:00+43с3560 0.0 10024776
16:00+43всв8463 0.0 10005221
19:00+38с4787 0.0 1001125
22:00+34ссв57120 0.0 100373
19 мая, ср
ср1901:00+32с58150 0.0 100287
04:00+31вюв45170 0.0 100250
07:00+32ююв45180 0.0 1003133
10:00+40зсз1290 0.0 10031094
13:00+44ссз7863 0.0 10004699
16:00+43сз11864 0.0 9994578
19:00+36ссз711135 0.0 1001298
22:00+32с45205 0.0 100250